| time (UTC) | temp C | wind direction | speed KPH | gust KPH | rain 1hr cm | rain 24hr cm | rain mn cm | humidity % | barometer mb |
| 20260906033512 | 23 | 267 | 0.0 | 0.0 | 0.00 | 0.00 | 0.00 | 19 | 1017.1 |
| 20260906033012 | 23 | 267 | 0.0 | 4.8 | 0.00 | 0.00 | 0.00 | 19 | 1017.0 |
| 20260906032512 | 23 | 267 | 0.0 | 0.0 | 0.00 | 0.00 | 0.00 | 19 | 1016.9 |
| 20260906032012 | 24 | 267 | 0.0 | 0.0 | 0.00 | 0.00 | 0.00 | 19 | 1016.8 |
| 20260906031512 | 24 | 267 | 0.0 | 0.0 | 0.00 | 0.00 | 0.00 | 18 | 1016.7 |
| 20260906031012 | 24 | 267 | 0.0 | 6.4 | 0.00 | 0.00 | 0.00 | 18 | 1016.8 |
| 20260906030512 | 24 | 267 | 0.0 | 4.8 | 0.00 | 0.00 | 0.00 | 18 | 1016.7 |
| 20260906030012 | 24 | 267 | 0.0 | 3.2 | 0.00 | 0.00 | 0.00 | 18 | 1016.7 |
| 20260906025512 | 25 | 267 | 0.0 | 0.0 | 0.00 | 0.00 | 0.00 | 18 | 1016.6 |
| 20260906025012 | 25 | 267 | 0.0 | 0.0 | 0.00 | 0.00 | 0.00 | 18 | 1016.5 |
| 20260906024512 | 25 | 267 | 0.0 | 0.0 | 0.00 | 0.00 | 0.00 | 18 | 1016.5 |
| 20260906024012 | 25 | 267 | 0.0 | 6.4 | 0.00 | 0.00 | 0.00 | 17 | 1016.3 |
| 20260906023512 | 25 | 267 | 0.0 | 1.6 | 0.00 | 0.00 | 0.00 | 17 | 1016.2 |
| 20260906023012 | 25 | 267 | 0.0 | 11.3 | 0.00 | 0.00 | 0.00 | 17 | 1016.2 |
| 20260906022512 | 25 | 266 | 0.0 | 0.0 | 0.00 | 0.00 | 0.00 | 18 | 1016.1 |
| 20260906022012 | 25 | 266 | 0.0 | 0.0 | 0.00 | 0.00 | 0.00 | 18 | 1016.1 |
| 20260906021512 | 25 | 266 | 0.0 | 6.4 | 0.00 | 0.00 | 0.00 | 18 | 1016.1 |
| 20260906021012 | 26 | 267 | 0.0 | 0.0 | 0.00 | 0.00 | 0.00 | 18 | 1016.0 |
| 20260906020512 | 26 | 267 | 0.0 | 0.0 | 0.00 | 0.00 | 0.00 | 18 | 1016.1 |
| 20260906020012 | 26 | 265 | 0.0 | 4.8 | 0.00 | 0.00 | 0.00 | 18 | 1015.9 |
| 20260906015512 | 26 | 265 | 1.6 | 4.8 | 0.00 | 0.00 | 0.00 | 18 | 1015.8 |
| 20260906015012 | 26 | 265 | 0.0 | 8.0 | 0.00 | 0.00 | 0.00 | 18 | 1016.0 |
| 20260906014512 | 26 | 265 | 1.6 | 6.4 | 0.00 | 0.00 | 0.00 | 18 | 1015.9 |
| 20260906014012 | 26 | 269 | 1.6 | 14.5 | 0.00 | 0.00 | 0.00 | 17 | 1016.0 |
| 20260906013512 | 26 | 291 | 1.6 | 11.3 | 0.00 | 0.00 | 0.00 | 16 | 1016.0 |
| 20260906013012 | 27 | 263 | 1.6 | 9.7 | 0.00 | 0.00 | 0.00 | 17 | 1016.0 |
| 20260906012512 | 27 | 263 | 0.0 | 8.0 | 0.00 | 0.00 | 0.00 | 17 | 1016.1 |
| 20260906012012 | 27 | 262 | 1.6 | 6.4 | 0.00 | 0.00 | 0.00 | 16 | 1016.0 |
| 20260906011512 | 27 | 263 | 1.6 | 12.9 | 0.00 | 0.00 | 0.00 | 16 | 1016.0 |
| 20260906011012 | 27 | 259 | 1.6 | 9.7 | 0.00 | 0.00 | 0.00 | 16 | 1016.0 |
| 20260906010512 | 27 | 249 | 1.6 | 4.8 | 0.00 | 0.00 | 0.00 | 16 | 1016.1 |
| 20260906010012 | 27 | 252 | 0.0 | 12.9 | 0.00 | 0.00 | 0.00 | 16 | 1015.9 |
| 20260906005512 | 27 | 244 | 1.6 | 6.4 | 0.00 | 0.00 | 0.00 | 16 | 1016.0 |
| 20260906005012 | 27 | 243 | 1.6 | 9.7 | 0.00 | 0.00 | 0.00 | 16 | 1015.9 |
| 20260906004512 | 27 | 248 | 1.6 | 3.2 | 0.00 | 0.00 | 0.00 | 17 | 1016.1 |
| 20260906004012 | 27 | 246 | 1.6 | 11.3 | 0.00 | 0.00 | 0.00 | 16 | 1015.9 |
| 20260906003512 | 27 | 212 | 1.6 | 9.7 | 0.00 | 0.00 | 0.00 | 16 | 1016.0 |
| 20260906003012 | 27 | 211 | 0.0 | 6.4 | 0.00 | 0.00 | 0.00 | 17 | 1016.0 |
| 20260906002512 | 28 | 211 | 0.0 | 6.4 | 0.00 | 0.00 | 0.00 | 17 | 1016.0 |
| 20260906002012 | 28 | 209 | 0.0 | 8.0 | 0.00 | 0.00 | 0.00 | 17 | 1016.0 |
| 20260906001512 | 28 | 209 | 0.0 | 11.3 | 0.00 | 0.00 | 0.00 | 17 | 1016.0 |
| 20260906001012 | 28 | 209 | 0.0 | 9.7 | 0.00 | 0.00 | 0.00 | 17 | 1016.0 |
| 20260906000512 | 28 | 213 | 0.0 | 6.4 | 0.00 | 0.00 | 0.00 | 16 | 1015.9 |
| 20260906000012 | 28 | 212 | 0.0 | 4.8 | 0.00 | 0.00 | 0.00 | 17 | 1016.0 |
| 20260905235512 | 28 | 211 | 1.6 | 6.4 | 0.00 | 0.00 | 0.00 | 17 | 1016.0 |
| 20260905235012 | 28 | 207 | 1.6 | 9.7 | 0.00 | 0.00 | 0.00 | 16 | 1016.0 |
| 20260905234512 | 28 | 229 | 1.6 | 8.0 | 0.00 | 0.00 | 0.00 | 15 | 1016.0 |
| 20260905234012 | 28 | 229 | 3.2 | 14.5 | 0.00 | 0.00 | 0.00 | 15 | 1016.2 |
| 20260905233512 | 29 | 233 | 1.6 | 8.0 | 0.00 | 0.00 | 0.00 | 15 | 1016.1 |
| 20260905233012 | 29 | 233 | 1.6 | 8.0 | 0.00 | 0.00 | 0.00 | 15 | 1016.1 |
| 20260905232512 | 29 | 221 | 1.6 | 6.4 | 0.00 | 0.00 | 0.00 | 15 | 1016.1 |
| 20260905232012 | 29 | 225 | 1.6 | 9.7 | 0.00 | 0.00 | 0.00 | 15 | 1016.3 |
| 20260905231512 | 29 | 224 | 1.6 | 9.7 | 0.00 | 0.00 | 0.00 | 15 | 1016.2 |
| 20260905231012 | 29 | 221 | 1.6 | 11.3 | 0.00 | 0.00 | 0.00 | 15 | 1016.3 |
| 20260905230512 | 29 | 219 | 3.2 | 11.3 | 0.00 | 0.00 | 0.00 | 15 | 1016.4 |
| 20260905230012 | 29 | 253 | 3.2 | 12.9 | 0.00 | 0.00 | 0.00 | 15 | 1016.4 |
| 20260905225512 | 29 | 252 | 3.2 | 9.7 | 0.00 | 0.00 | 0.00 | 14 | 1016.6 |
| 20260905225012 | 29 | 247 | 3.2 | 9.7 | 0.00 | 0.00 | 0.00 | 16 | 1016.4 |
| 20260905224512 | 29 | 246 | 3.2 | 6.4 | 0.00 | 0.00 | 0.00 | 15 | 1016.6 |
| 20260905224012 | 29 | 244 | 3.2 | 11.3 | 0.00 | 0.00 | 0.00 | 14 | 1016.5 |
| 20260905223512 | 29 | 253 | 1.6 | 9.7 | 0.00 | 0.00 | 0.00 | 15 | 1016.7 |
| 20260905223012 | 29 | 263 | 3.2 | 8.0 | 0.00 | 0.00 | 0.00 | 14 | 1016.7 |
| 20260905222512 | 29 | 271 | 3.2 | 11.3 | 0.00 | 0.00 | 0.00 | 14 | 1016.7 |
| 20260905222012 | 29 | 211 | 3.2 | 11.3 | 0.00 | 0.00 | 0.00 | 14 | 1016.9 |
| 20260905221512 | 28 | 198 | 4.8 | 11.3 | 0.00 | 0.00 | 0.00 | 15 | 1016.7 |
| 20260905221012 | 28 | 207 | 3.2 | 14.5 | 0.00 | 0.00 | 0.00 | 14 | 1016.7 |
| 20260905220513 | 28 | 262 | 3.2 | 14.5 | 0.00 | 0.00 | 0.00 | 14 | 1016.9 |
| 20260905220012 | 28 | 208 | 3.2 | 11.3 | 0.00 | 0.00 | 0.00 | 15 | 1016.9 |
| 20260905215512 | 28 | 147 | 3.2 | 11.3 | 0.00 | 0.00 | 0.00 | 14 | 1017.0 |
| 20260905215013 | 28 | 238 | 3.2 | 12.9 | 0.00 | 0.00 | 0.00 | 15 | 1017.0 |
| 20260905214513 | 28 | 284 | 3.2 | 12.9 | 0.00 | 0.00 | 0.00 | 14 | 1017.0 |
| 20260905214012 | 29 | 192 | 3.2 | 11.3 | 0.00 | 0.00 | 0.00 | 14 | 1017.1 |
| 20260905213513 | 29 | 218 | 3.2 | 11.3 | 0.00 | 0.00 | 0.00 | 13 | 1017.2 |
| 20260905213013 | 29 | 225 | 1.6 | 11.3 | 0.00 | 0.00 | 0.00 | 13 | 1017.4 |
| 20260905212513 | 29 | 205 | 4.8 | 8.0 | 0.00 | 0.00 | 0.00 | 13 | 1017.5 |
| 20260905212013 | 29 | 218 | 3.2 | 14.5 | 0.00 | 0.00 | 0.00 | 13 | 1017.0 |
| 20260905211513 | 29 | 245 | 1.6 | 11.3 | 0.00 | 0.00 | 0.00 | 14 | 1017.1 |
| 20260905211013 | 28 | 241 | 1.6 | 8.0 | 0.00 | 0.00 | 0.00 | 15 | 1017.2 |
| 20260905210513 | 28 | 259 | 3.2 | 8.0 | 0.00 | 0.00 | 0.00 | 16 | 1017.4 |
| 20260905210013 | 28 | 196 | 3.2 | 17.7 | 0.00 | 0.00 | 0.00 | 14 | 1017.6 |
| 20260905205513 | 28 | 263 | 1.6 | 16.1 | 0.00 | 0.00 | 0.00 | 14 | 1017.6 |
| 20260905205013 | 28 | 261 | 1.6 | 12.9 | 0.00 | 0.00 | 0.00 | 15 | 1017.5 |
| 20260905204513 | 28 | 220 | 3.2 | 12.9 | 0.00 | 0.00 | 0.00 | 15 | 1017.7 |
| 20260905204013 | 28 | 213 | 3.2 | 12.9 | 0.00 | 0.00 | 0.00 | 15 | 1017.7 |
| 20260905203513 | 28 | 202 | 3.2 | 8.0 | 0.00 | 0.00 | 0.00 | 16 | 1017.8 |
| 20260905203013 | 28 | 172 | 4.8 | 11.3 | 0.00 | 0.00 | 0.00 | 15 | 1017.6 |
| 20260905202513 | 28 | 242 | 4.8 | 9.7 | 0.00 | 0.00 | 0.00 | 15 | 1017.8 |
| 20260905202013 | 28 | 209 | 4.8 | 11.3 | 0.00 | 0.00 | 0.00 | 16 | 1017.9 |
| 20260905201513 | 28 | 273 | 3.2 | 16.1 | 0.00 | 0.00 | 0.00 | 17 | 1017.8 |
| 20260905201013 | 27 | 261 | 1.6 | 16.1 | 0.00 | 0.00 | 0.00 | 17 | 1017.8 |
| 20260905200513 | 27 | 199 | 3.2 | 11.3 | 0.00 | 0.00 | 0.00 | 18 | 1017.7 |
| 20260905200013 | 27 | 173 | 4.8 | 17.7 | 0.00 | 0.00 | 0.00 | 21 | 1017.9 |
| 20260905195513 | 27 | 159 | 3.2 | 12.9 | 0.00 | 0.00 | 0.00 | 22 | 1017.9 |
| 20260905195013 | 27 | 222 | 0.0 | 6.4 | 0.00 | 0.00 | 0.00 | 20 | 1018.0 |
| 20260905194513 | 27 | 160 | 3.2 | 8.0 | 0.00 | 0.00 | 0.00 | 21 | 1018.1 |
| 20260905194013 | 27 | 182 | 6.4 | 25.7 | 0.00 | 0.00 | 0.00 | 23 | 1018.1 |
| 20260905193513 | 27 | 173 | 4.8 | 16.1 | 0.00 | 0.00 | 0.00 | 22 | 1018.0 |
| 20260905193013 | 27 | 209 | 6.4 | 14.5 | 0.00 | 0.00 | 0.00 | 23 | 1018.0 |
| 20260905192513 | 27 | 238 | 6.4 | 17.7 | 0.00 | 0.00 | 0.00 | 21 | 1018.1 |
| 20260905192013 | 27 | 177 | 4.8 | 14.5 | 0.00 | 0.00 | 0.00 | 22 | 1018.2 |
| 20260905191513 | 27 | 194 | 4.8 | 12.9 | 0.00 | 0.00 | 0.00 | 22 | 1018.3 |
| 20260905191013 | 27 | 205 | 4.8 | 14.5 | 0.00 | 0.00 | 0.00 | 21 | 1018.3 |
| 20260905190513 | 27 | 228 | 3.2 | 8.0 | 0.00 | 0.00 | 0.00 | 22 | 1018.5 |
| 20260905190013 | 27 | 224 | 4.8 | 9.7 | 0.00 | 0.00 | 0.00 | 19 | 1018.5 |
| 20260905185513 | 27 | 138 | 4.8 | 12.9 | 0.00 | 0.00 | 0.00 | 17 | 1018.8 |
| 20260905185013 | 27 | 164 | 4.8 | 14.5 | 0.00 | 0.00 | 0.00 | 17 | 1018.5 |
| 20260905184513 | 27 | 196 | 3.2 | 14.5 | 0.00 | 0.00 | 0.00 | 18 | 1018.9 |
| 20260905184013 | 27 | 267 | 1.6 | 11.3 | 0.00 | 0.00 | 0.00 | 18 | 1018.9 |
| 20260905183513 | 27 | 265 | 3.2 | 9.7 | 0.00 | 0.00 | 0.00 | 16 | 1019.1 |
| 20260905183013 | 27 | 265 | 3.2 | 11.3 | 0.00 | 0.00 | 0.00 | 17 | 1018.9 |
| 20260905182513 | 27 | 263 | 1.6 | 8.0 | 0.00 | 0.00 | 0.00 | 17 | 1019.0 |
| 20260905182013 | 26 | 243 | 3.2 | 11.3 | 0.00 | 0.00 | 0.00 | 17 | 1019.0 |
| 20260905181513 | 26 | 240 | 1.6 | 8.0 | 0.00 | 0.00 | 0.00 | 18 | 1019.1 |
| 20260905181013 | 26 | 244 | 3.2 | 9.7 | 0.00 | 0.00 | 0.00 | 19 | 1019.3 |
| 20260905180513 | 26 | 250 | 3.2 | 9.7 | 0.00 | 0.00 | 0.00 | 20 | 1019.3 |
| 20260905180013 | 26 | 252 | 3.2 | 12.9 | 0.00 | 0.00 | 0.00 | 19 | 1019.2 |
| 20260905175513 | 26 | 196 | 1.6 | 9.7 | 0.00 | 0.00 | 0.00 | 20 | 1019.4 |
| 20260905175013 | 26 | 203 | 1.6 | 8.0 | 0.00 | 0.00 | 0.00 | 18 | 1019.2 |
| 20260905174513 | 26 | 202 | 1.6 | 9.7 | 0.00 | 0.00 | 0.00 | 20 | 1019.4 |
| 20260905174013 | 26 | 202 | 1.6 | 8.0 | 0.00 | 0.00 | 0.00 | 20 | 1019.4 |
| 20260905173513 | 26 | 200 | 4.8 | 17.7 | 0.00 | 0.00 | 0.00 | 20 | 1019.4 |
| 20260905173013 | 26 | 230 | 3.2 | 17.7 | 0.00 | 0.00 | 0.00 | 20 | 1019.4 |
| 20260905172513 | 25 | 242 | 1.6 | 9.7 | 0.00 | 0.00 | 0.00 | 19 | 1019.4 |
| 20260905172013 | 25 | 281 | 1.6 | 11.3 | 0.00 | 0.00 | 0.00 | 20 | 1019.4 |
| 20260905171513 | 25 | 228 | 3.2 | 9.7 | 0.00 | 0.00 | 0.00 | 18 | 1019.4 |
| 20260905171013 | 25 | 227 | 3.2 | 8.0 | 0.00 | 0.00 | 0.00 | 20 | 1019.3 |
| 20260905170513 | 25 | 211 | 3.2 | 8.0 | 0.00 | 0.00 | 0.00 | 20 | 1019.4 |
| 20260905170013 | 25 | 200 | 3.2 | 12.9 | 0.00 | 0.00 | 0.00 | 20 | 1019.3 |
| 20260905165513 | 25 | 225 | 3.2 | 12.9 | 0.00 | 0.00 | 0.00 | 19 | 1019.3 |
| 20260905165013 | 25 | 271 | 1.6 | 12.9 | 0.00 | 0.00 | 0.00 | 20 | 1019.3 |
| 20260905164513 | 25 | 238 | 1.6 | 9.7 | 0.00 | 0.00 | 0.00 | 19 | 1019.4 |
| 20260905164013 | 25 | 177 | 1.6 | 12.9 | 0.00 | 0.00 | 0.00 | 21 | 1019.3 |
| 20260905163513 | 24 | 189 | 1.6 | 8.0 | 0.00 | 0.00 | 0.00 | 21 | 1019.4 |
| 20260905163013 | 24 | 213 | 1.6 | 9.7 | 0.00 | 0.00 | 0.00 | 23 | 1019.4 |
| 20260905162513 | 24 | 178 | 1.6 | 8.0 | 0.00 | 0.00 | 0.00 | 25 | 1019.4 |
| 20260905162013 | 24 | 182 | 1.6 | 8.0 | 0.00 | 0.00 | 0.00 | 26 | 1019.4 |
| 20260905161513 | 23 | 180 | 1.6 | 9.7 | 0.00 | 0.00 | 0.00 | 24 | 1019.5 |
| 20260905161013 | 23 | 188 | 1.6 | 11.3 | 0.00 | 0.00 | 0.00 | 25 | 1019.5 |
| 20260905160513 | 23 | 208 | 1.6 | 8.0 | 0.00 | 0.00 | 0.00 | 24 | 1019.4 |
| 20260905160013 | 23 | 211 | 1.6 | 9.7 | 0.00 | 0.00 | 0.00 | 24 | 1019.2 |
| 20260905155513 | 23 | 212 | 1.6 | 9.7 | 0.00 | 0.00 | 0.00 | 26 | 1019.3 |
| 20260905155013 | 23 | 213 | 1.6 | 11.3 | 0.00 | 0.00 | 0.00 | 24 | 1019.3 |
| 20260905154513 | 23 | 215 | 0.0 | 6.4 | 0.00 | 0.00 | 0.00 | 25 | 1019.3 |
| 20260905154013 | 23 | 215 | 0.0 | 6.4 | 0.00 | 0.00 | 0.00 | 25 | 1019.4 |
| 20260905153513 | 23 | 217 | 0.0 | 3.2 | 0.00 | 0.00 | 0.00 | 26 | 1019.3 |
| 20260905153013 | 22 | 217 | 0.0 | 4.8 | 0.00 | 0.00 | 0.00 | 25 | 1019.5 |
| 20260905152513 | 22 | 217 | 0.0 | 0.0 | 0.00 | 0.00 | 0.00 | 26 | 1019.6 |
| 20260905152013 | 22 | 217 | 0.0 | 4.8 | 0.00 | 0.00 | 0.00 | 27 | 1019.6 |
| 20260905151513 | 22 | 217 | 0.0 | 4.8 | 0.00 | 0.00 | 0.00 | 27 | 1019.6 |
| 20260905151013 | 22 | 217 | 1.6 | 4.8 | 0.00 | 0.00 | 0.00 | 26 | 1019.6 |
| 20260905150513 | 22 | 217 | 1.6 | 9.7 | 0.00 | 0.00 | 0.00 | 27 | 1019.5 |
| 20260905150013 | 22 | 219 | 0.0 | 6.4 | 0.00 | 0.00 | 0.00 | 26 | 1019.4 |
| 20260905145513 | 22 | 219 | 0.0 | 4.8 | 0.00 | 0.00 | 0.00 | 27 | 1019.5 |
| 20260905145013 | 22 | 219 | 0.0 | 4.8 | 0.00 | 0.00 | 0.00 | 25 | 1019.4 |
| 20260905144513 | 22 | 219 | 0.0 | 0.0 | 0.00 | 0.00 | 0.00 | 27 | 1019.4 |
| 20260905144013 | 22 | 219 | 0.0 | 0.0 | 0.00 | 0.00 | 0.00 | 27 | 1019.3 |
| 20260905143513 | 21 | 219 | 0.0 | 0.0 | 0.00 | 0.00 | 0.00 | 27 | 1019.4 |
| 20260905143013 | 21 | 219 | 0.0 | 0.0 | 0.00 | 0.00 | 0.00 | 31 | 1019.4 |
| 20260905142513 | 21 | 219 | 0.0 | 0.0 | 0.00 | 0.00 | 0.00 | 30 | 1019.3 |
| 20260905142013 | 21 | 219 | 0.0 | 0.0 | 0.00 | 0.00 | 0.00 | 31 | 1019.3 |
| 20260905141513 | 20 | 219 | 0.0 | 0.0 | 0.00 | 0.00 | 0.00 | 31 | 1019.3 |
| 20260905141013 | 20 | 219 | 0.0 | 0.0 | 0.00 | 0.00 | 0.00 | 33 | 1019.3 |
| 20260905140513 | 20 | 219 | 0.0 | 0.0 | 0.00 | 0.00 | 0.00 | 34 | 1019.2 |
| 20260905140013 | 19 | 219 | 0.0 | 0.0 | 0.00 | 0.00 | 0.00 | 32 | 1019.1 |
| 20260905135513 | 18 | 219 | 0.0 | 0.0 | 0.00 | 0.00 | 0.00 | 34 | 1019.1 |
| 20260905135013 | 18 | 219 | 0.0 | 0.0 | 0.00 | 0.00 | 0.00 | 34 | 1019.1 |
| 20260905134513 | 18 | 219 | 0.0 | 0.0 | 0.00 | 0.00 | 0.00 | 32 | 1018.9 |
| 20260905134013 | 17 | 219 | 0.0 | 0.0 | 0.00 | 0.00 | 0.00 | 32 | 1019.0 |
| 20260905133513 | 17 | 219 | 0.0 | 0.0 | 0.00 | 0.00 | 0.00 | 32 | 1018.9 |
| 20260905133013 | 17 | 219 | 0.0 | 0.0 | 0.00 | 0.00 | 0.00 | 32 | 1018.9 |
| 20260905132513 | 17 | 219 | 0.0 | 0.0 | 0.00 | 0.00 | 0.00 | 33 | 1018.8 |
| 20260905132013 | 18 | 219 | 0.0 | 0.0 | 0.00 | 0.00 | 0.00 | 29 | 1018.7 |
| 20260905131513 | 18 | 219 | 0.0 | 0.0 | 0.00 | 0.00 | 0.00 | 28 | 1018.7 |
| 20260905131013 | 18 | 219 | 1.6 | 0.0 | 0.00 | 0.00 | 0.00 | 27 | 1018.6 |
| 20260905130513 | 19 | 219 | 1.6 | 6.4 | 0.00 | 0.00 | 0.00 | 26 | 1018.6 |
| 20260905130013 | 19 | 219 | 1.6 | 4.8 | 0.00 | 0.00 | 0.00 | 26 | 1018.3 |
| 20260905125513 | 19 | 219 | 1.6 | 4.8 | 0.00 | 0.00 | 0.00 | 26 | 1018.3 |
| 20260905125013 | 19 | 219 | 1.6 | 8.0 | 0.00 | 0.00 | 0.00 | 25 | 1018.2 |
| 20260905124513 | 19 | 221 | 1.6 | 9.7 | 0.00 | 0.00 | 0.00 | 25 | 1018.2 |
| 20260905124013 | 19 | 224 | 1.6 | 11.3 | 0.00 | 0.00 | 0.00 | 26 | 1018.1 |
| 20260905123513 | 19 | 226 | 0.0 | 6.4 | 0.00 | 0.00 | 0.00 | 25 | 1018.0 |
| 20260905123013 | 19 | 226 | 0.0 | 3.2 | 0.00 | 0.00 | 0.00 | 26 | 1018.1 |
| 20260905122513 | 19 | 226 | 0.0 | 4.8 | 0.00 | 0.00 | 0.00 | 26 | 1018.0 |
| 20260905122013 | 19 | 226 | 1.6 | 6.4 | 0.00 | 0.00 | 0.00 | 26 | 1018.1 |
| 20260905121513 | 19 | 226 | 1.6 | 4.8 | 0.00 | 0.00 | 0.00 | 26 | 1018.0 |
| 20260905121013 | 19 | 227 | 0.0 | 8.0 | 0.00 | 0.00 | 0.00 | 26 | 1018.0 |
| 20260905120513 | 19 | 228 | 0.0 | 3.2 | 0.00 | 0.00 | 0.00 | 26 | 1018.1 |
| 20260905120013 | 19 | 228 | 1.6 | 4.8 | 0.00 | 0.00 | 0.00 | 26 | 1018.1 |
| 20260905115513 | 19 | 228 | 0.0 | 1.6 | 0.00 | 0.00 | 0.00 | 26 | 1018.1 |
| 20260905115013 | 19 | 228 | 0.0 | 4.8 | 0.00 | 0.00 | 0.00 | 26 | 1018.1 |
| 20260905114513 | 19 | 228 | 0.0 | 4.8 | 0.00 | 0.00 | 0.00 | 26 | 1018.1 |
| 20260905114013 | 19 | 228 | 0.0 | 9.7 | 0.00 | 0.00 | 0.00 | 28 | 1018.1 |
| 20260905113513 | 18 | 228 | 0.0 | 6.4 | 0.00 | 0.00 | 0.00 | 27 | 1017.9 |
| 20260905113013 | 18 | 228 | 0.0 | 6.4 | 0.00 | 0.00 | 0.00 | 29 | 1018.0 |
| 20260905112514 | 18 | 228 | 0.0 | 0.0 | 0.00 | 0.00 | 0.00 | 31 | 1018.1 |
| 20260905112014 | 19 | 228 | 0.0 | 0.0 | 0.00 | 0.00 | 0.00 | 33 | 1018.0 |
| 20260905111514 | 19 | 228 | 0.0 | 0.0 | 0.00 | 0.00 | 0.00 | 31 | 1018.0 |
| 20260905111014 | 19 | 228 | 0.0 | 0.0 | 0.00 | 0.00 | 0.00 | 27 | 1017.9 |
| 20260905110514 | 19 | 228 | 0.0 | 0.0 | 0.00 | 0.00 | 0.00 | 27 | 1017.9 |
| 20260905110014 | 19 | 228 | 0.0 | 3.2 | 0.00 | 0.00 | 0.00 | 27 | 1017.8 |
| 20260905105514 | 19 | 228 | 0.0 | 4.8 | 0.00 | 0.00 | 0.00 | 28 | 1017.8 |
| 20260905105014 | 19 | 228 | 0.0 | 1.6 | 0.00 | 0.00 | 0.00 | 31 | 1017.7 |
| 20260905104514 | 19 | 228 | 0.0 | 0.0 | 0.00 | 0.00 | 0.00 | 32 | 1017.8 |
| 20260905104014 | 20 | 228 | 0.0 | 0.0 | 0.00 | 0.00 | 0.00 | 30 | 1017.7 |
| 20260905103514 | 20 | 228 | 0.0 | 1.6 | 0.00 | 0.00 | 0.00 | 30 | 1017.7 |
| 20260905103014 | 20 | 228 | 0.0 | 4.8 | 0.00 | 0.00 | 0.00 | 28 | 1017.8 |
| 20260905102514 | 20 | 228 | 0.0 | 3.2 | 0.00 | 0.00 | 0.00 | 26 | 1017.8 |
| 20260905102014 | 20 | 228 | 0.0 | 0.0 | 0.00 | 0.00 | 0.00 | 27 | 1017.8 |
| 20260905101514 | 20 | 228 | 0.0 | 3.2 | 0.00 | 0.00 | 0.00 | 28 | 1017.8 |
| 20260905101014 | 20 | 228 | 0.0 | 4.8 | 0.00 | 0.00 | 0.00 | 29 | 1017.7 |
| 20260905100514 | 20 | 229 | 0.0 | 0.0 | 0.00 | 0.00 | 0.00 | 30 | 1017.6 |
| 20260905100014 | 20 | 229 | 0.0 | 6.4 | 0.00 | 0.00 | 0.00 | 31 | 1017.5 |
| 20260905095514 | 20 | 229 | 0.0 | 0.0 | 0.00 | 0.00 | 0.00 | 33 | 1017.5 |
| 20260905095014 | 20 | 229 | 0.0 | 3.2 | 0.00 | 0.00 | 0.00 | 32 | 1017.5 |
| 20260905094514 | 20 | 229 | 0.0 | 3.2 | 0.00 | 0.00 | 0.00 | 34 | 1017.4 |
| 20260905094014 | 20 | 229 | 0.0 | 9.7 | 0.00 | 0.00 | 0.00 | 32 | 1017.3 |
| 20260905093514 | 20 | 229 | 0.0 | 4.8 | 0.00 | 0.00 | 0.00 | 31 | 1017.3 |
| 20260905093014 | 21 | 229 | 0.0 | 4.8 | 0.00 | 0.00 | 0.00 | 31 | 1017.3 |
| 20260905092514 | 21 | 229 | 0.0 | 1.6 | 0.00 | 0.00 | 0.00 | 29 | 1017.3 |
| 20260905092014 | 21 | 229 | 0.0 | 1.6 | 0.00 | 0.00 | 0.00 | 29 | 1017.3 |
| 20260905091514 | 21 | 229 | 0.0 | 9.7 | 0.00 | 0.00 | 0.00 | 29 | 1017.2 |
| 20260905091014 | 21 | 233 | 0.0 | 6.4 | 0.00 | 0.00 | 0.00 | 29 | 1017.2 |
| 20260905090514 | 21 | 233 | 0.0 | 3.2 | 0.00 | 0.00 | 0.00 | 29 | 1017.2 |
| 20260905090014 | 21 | 233 | 0.0 | 8.0 | 0.00 | 0.00 | 0.00 | 30 | 1017.1 |
| 20260905085514 | 21 | 233 | 0.0 | 0.0 | 0.00 | 0.00 | 0.00 | 30 | 1017.2 |
| 20260905085014 | 21 | 233 | 0.0 | 3.2 | 0.00 | 0.00 | 0.00 | 30 | 1017.2 |
| 20260905084514 | 21 | 233 | 0.0 | 4.8 | 0.00 | 0.00 | 0.00 | 29 | 1017.2 |
| 20260905084014 | 21 | 233 | 0.0 | 3.2 | 0.00 | 0.00 | 0.00 | 29 | 1017.2 |
| 20260905083514 | 21 | 233 | 0.0 | 0.0 | 0.00 | 0.00 | 0.00 | 29 | 1017.1 |
| 20260905083014 | 21 | 233 | 0.0 | 3.2 | 0.00 | 0.00 | 0.00 | 29 | 1017.0 |
| 20260905082514 | 21 | 233 | 0.0 | 6.4 | 0.00 | 0.00 | 0.00 | 28 | 1017.1 |
| 20260905082014 | 21 | 233 | 0.0 | 3.2 | 0.00 | 0.00 | 0.00 | 28 | 1016.9 |
| 20260905081514 | 21 | 233 | 0.0 | 4.8 | 0.00 | 0.00 | 0.00 | 28 | 1016.9 |
| 20260905081014 | 21 | 233 | 0.0 | 8.0 | 0.00 | 0.00 | 0.00 | 28 | 1017.0 |
| 20260905080514 | 21 | 234 | 0.0 | 3.2 | 0.00 | 0.00 | 0.00 | 28 | 1016.9 |
| 20260905080014 | 21 | 234 | 0.0 | 4.8 | 0.00 | 0.00 | 0.00 | 29 | 1016.9 |
| 20260905075514 | 21 | 234 | 0.0 | 4.8 | 0.00 | 0.00 | 0.00 | 29 | 1016.9 |
| 20260905075014 | 21 | 234 | 0.0 | 4.8 | 0.00 | 0.00 | 0.00 | 29 | 1016.9 |
| 20260905074514 | 21 | 234 | 0.0 | 0.0 | 0.00 | 0.00 | 0.00 | 29 | 1016.9 |
| 20260905074014 | 21 | 234 | 0.0 | 3.2 | 0.00 | 0.00 | 0.00 | 29 | 1016.9 |
| 20260905073514 | 22 | 234 | 0.0 | 3.2 | 0.00 | 0.00 | 0.00 | 29 | 1016.7 |
| 20260905073014 | 22 | 234 | 0.0 | 4.8 | 0.00 | 0.00 | 0.00 | 28 | 1016.7 |
| 20260905072514 | 22 | 234 | 0.0 | 0.0 | 0.00 | 0.00 | 0.00 | 29 | 1016.6 |
| 20260905072014 | 22 | 234 | 0.0 | 0.0 | 0.00 | 0.00 | 0.00 | 29 | 1016.4 |
| 20260905071514 | 22 | 234 | 0.0 | 0.0 | 0.00 | 0.00 | 0.00 | 29 | 1016.5 |
| 20260905071014 | 22 | 234 | 0.0 | 4.8 | 0.00 | 0.00 | 0.00 | 28 | 1016.3 |
| 20260905070514 | 22 | 234 | 0.0 | 8.0 | 0.00 | 0.00 | 0.00 | 28 | 1016.3 |
| 20260905070014 | 22 | 234 | 0.0 | 8.0 | 0.00 | 0.00 | 0.00 | 27 | 1016.3 |
| 20260905065514 | 23 | 235 | 0.0 | 4.8 | 0.00 | 0.00 | 0.00 | 27 | 1016.0 |
| 20260905065014 | 23 | 233 | 1.6 | 6.4 | 0.00 | 0.00 | 0.00 | 26 | 1016.0 |
| 20260905064514 | 23 | 233 | 1.6 | 8.0 | 0.00 | 0.00 | 0.00 | 26 | 1016.0 |
| 20260905064014 | 23 | 235 | 1.6 | 8.0 | 0.00 | 0.00 | 0.00 | 26 | 1015.9 |
| 20260905063514 | 23 | 221 | 1.6 | 11.3 | 0.00 | 0.00 | 0.00 | 27 | 1015.8 |
| 20260905063014 | 23 | 221 | 1.6 | 8.0 | 0.00 | 0.00 | 0.00 | 26 | 1015.9 |
| 20260905062514 | 23 | 225 | 0.0 | 4.8 | 0.00 | 0.00 | 0.00 | 27 | 1015.9 |
| 20260905062014 | 23 | 225 | 0.0 | 4.8 | 0.00 | 0.00 | 0.00 | 27 | 1015.7 |
| 20260905061514 | 23 | 225 | 1.6 | 8.0 | 0.00 | 0.00 | 0.00 | 27 | 1015.7 |
| 20260905061014 | 23 | 226 | 1.6 | 6.4 | 0.00 | 0.00 | 0.00 | 27 | 1015.6 |
| 20260905060514 | 23 | 226 | 1.6 | 12.9 | 0.00 | 0.00 | 0.00 | 27 | 1015.5 |
| 20260905060014 | 23 | 235 | 0.0 | 6.4 | 0.00 | 0.00 | 0.00 | 28 | 1015.5 |
| 20260905055514 | 23 | 238 | 0.0 | 8.0 | 0.00 | 0.00 | 0.00 | 28 | 1015.5 |
| 20260905055014 | 23 | 236 | 0.0 | 3.2 | 0.00 | 0.00 | 0.00 | 28 | 1015.4 |
| 20260905054514 | 23 | 237 | 0.0 | 9.7 | 0.00 | 0.00 | 0.00 | 27 | 1015.4 |
| 20260905054014 | 23 | 235 | 0.0 | 3.2 | 0.00 | 0.00 | 0.00 | 28 | 1015.3 |
| 20260905053514 | 23 | 234 | 0.0 | 4.8 | 0.00 | 0.00 | 0.00 | 27 | 1015.3 |
| 20260905053014 | 23 | 236 | 0.0 | 8.0 | 0.00 | 0.00 | 0.00 | 27 | 1015.3 |
| 20260905052514 | 23 | 236 | 0.0 | 3.2 | 0.00 | 0.00 | 0.00 | 27 | 1015.3 |
| 20260905052014 | 23 | 236 | 0.0 | 4.8 | 0.00 | 0.00 | 0.00 | 27 | 1015.3 |
| 20260905051514 | 23 | 236 | 0.0 | 6.4 | 0.00 | 0.00 | 0.00 | 27 | 1015.1 |
| 20260905051014 | 23 | 236 | 0.0 | 8.0 | 0.00 | 0.00 | 0.00 | 27 | 1015.2 |
| 20260905050514 | 23 | 236 | 0.0 | 11.3 | 0.00 | 0.00 | 0.00 | 27 | 1015.2 |
| 20260905050014 | 23 | 246 | 0.0 | 3.2 | 0.00 | 0.00 | 0.00 | 26 | 1015.1 |
| 20260905045514 | 23 | 246 | 0.0 | 3.2 | 0.00 | 0.00 | 0.00 | 26 | 1015.1 |
| 20260905045014 | 23 | 246 | 0.0 | 1.6 | 0.00 | 0.00 | 0.00 | 26 | 1015.1 |
| 20260905044514 | 23 | 246 | 0.0 | 3.2 | 0.00 | 0.00 | 0.00 | 26 | 1015.2 |
| 20260905044014 | 23 | 246 | 0.0 | 3.2 | 0.00 | 0.00 | 0.00 | 26 | 1015.3 |
| 20260905043514 | 23 | 246 | 0.0 | 8.0 | 0.00 | 0.00 | 0.00 | 25 | 1015.2 |
| 20260905043014 | 23 | 246 | 0.0 | 1.6 | 0.00 | 0.00 | 0.00 | 25 | 1015.1 |
| 20260905042514 | 23 | 246 | 0.0 | 0.0 | 0.00 | 0.00 | 0.00 | 25 | 1015.1 |
| 20260905042014 | 23 | 246 | 0.0 | 0.0 | 0.00 | 0.00 | 0.00 | 25 | 1015.0 |
| 20260905041514 | 23 | 246 | 0.0 | 0.0 | 0.00 | 0.00 | 0.00 | 25 | 1015.0 |
| 20260905041014 | 23 | 246 | 0.0 | 0.0 | 0.00 | 0.00 | 0.00 | 24 | 1014.9 |
| 20260905040514 | 23 | 246 | 0.0 | 0.0 | 0.00 | 0.00 | 0.00 | 24 | 1014.8 |
| 20260905040014 | 23 | 246 | 0.0 | 0.0 | 0.00 | 0.00 | 0.00 | 25 | 1014.7 |
| 20260905035514 | 23 | 246 | 0.0 | 0.0 | 0.00 | 0.00 | 0.00 | 25 | 1014.6 |
| 20260905035014 | 23 | 246 | 0.0 | 0.0 | 0.00 | 0.00 | 0.00 | 24 | 1014.6 |
| 20260905034514 | 23 | 246 | 0.0 | 0.0 | 0.00 | 0.00 | 0.00 | 24 | 1014.5 |
| 20260905034014 | 23 | 246 | 0.0 | 0.0 | 0.00 | 0.00 | 0.00 | 24 | 1014.5 |